Date String (YYYY-MM-DD hh:mm:ss) UTC,Instrument flags,Ambient pressure (hPa),Sample flow (lpm),Bypass flow (lpm),Sample temperature (°C),Ambient temperature (°C),ASC tube jacket temperature (°C),LED temperature (°C),Box temperature (°C),Sample RH (%),Span deviation,Mass concentration (μg/m³),Mass concentration (μg/m³),Mass concentration (μg/m³)
DateTimeUTC,F1_M11,P_M11,Q1_M11,Q2_M11,T1_M11,T2_M11,T3_M11,T4_M11,T5_M11,U1_M11,ZSPAN_M11,X0_M11,X2_M11,X1_M11
2022-12-07 06:00:00,,0824.0,4.99,0.00,21.7,21.4,00.0,30.6,23.6,09.7,0000.0,0001.62,0000.97,0000.69
2022-12-07 06:01:00,,0824.0,5.00,0.00,21.7,20.9,00.0,30.6,23.4,09.6,0000.0,0001.55,0000.93,0000.67
2022-12-07 06:02:00,,0824.0,5.02,0.00,21.6,20.5,00.0,30.6,23.3,09.6,0000.0,0001.58,0000.95,0000.67
2022-12-07 06:03:00,,0824.1,5.00,0.00,21.6,20.3,00.0,30.6,23.3,09.7,0000.0,0001.54,0000.95,0000.67
2022-12-07 06:04:00,,0824.1,4.99,0.00,21.5,20.0,00.0,30.6,23.2,09.9,0000.0,0001.52,0000.95,0000.68
2022-12-07 06:05:00,,0824.1,4.99,0.00,21.5,19.8,00.0,30.6,23.1,09.7,0000.0,0001.41,0000.92,0000.68
2022-12-07 06:06:00,,0824.1,5.00,0.00,21.5,19.7,00.0,30.6,23.1,09.7,0000.0,0001.46,0000.91,0000.67
2022-12-07 06:07:00,,0824.1,5.01,0.00,21.4,19.6,00.0,30.5,23.1,09.8,0000.0,0001.46,0000.90,0000.67
2022-12-07 06:08:00,,0824.1,5.00,0.00,21.4,19.6,00.0,30.5,23.1,09.8,0000.0,0001.77,0000.89,0000.67
2022-12-07 06:09:00,,0824.1,5.00,0.00,21.4,19.6,00.0,30.5,23.1,09.8,0000.0,0001.78,0000.86,0000.65
2022-12-07 06:10:00,,0824.1,5.01,0.00,21.4,19.6,00.0,30.5,23.0,09.7,0000.0,0001.72,0000.83,0000.65
2022-12-07 06:11:00,,0824.1,5.00,0.00,21.3,19.5,00.0,30.5,23.0,09.8,0000.0,0001.76,0000.85,0000.65
2022-12-07 06:12:00,,0824.1,4.99,0.00,21.3,19.5,00.0,30.5,23.0,09.8,0000.0,0001.88,0000.89,0000.66
2022-12-07 06:13:00,,0824.1,4.99,0.00,21.3,19.4,00.0,30.4,22.9,10.1,0000.0,0001.90,0000.89,0000.66
2022-12-07 06:14:00,,0824.1,5.00,0.00,21.3,19.4,00.0,30.4,22.9,10.2,0000.0,0001.93,0000.90,0000.66
2022-12-07 06:15:00,,0824.1,5.00,0.00,21.3,19.4,00.0,30.4,22.9,10.2,0000.0,0001.99,0000.92,0000.66
2022-12-07 06:16:00,,0824.1,5.00,0.00,21.2,19.7,00.0,30.3,23.0,10.3,0000.0,0001.90,0000.89,0000.66
2022-12-07 06:17:00,,0824.1,5.01,0.00,21.3,21.0,00.0,30.3,23.2,10.1,0000.0,0002.08,0000.87,0000.66
2022-12-07 06:18:00,,0824.1,4.99,0.00,21.5,21.8,00.0,30.3,23.5,09.9,0000.0,0002.05,0000.86,0000.66
2022-12-07 06:19:00,,0824.0,4.99,0.00,21.5,21.4,00.0,30.3,23.5,09.7,0000.0,0001.82,0000.88,0000.68
2022-12-07 06:20:00,,0824.1,5.00,0.00,21.5,20.9,00.0,30.4,23.3,09.7,0000.0,0001.77,0000.90,0000.69
2022-12-07 06:21:00,,0824.1,5.00,0.00,21.5,20.5,00.0,30.4,23.2,09.6,0000.0,0001.85,0000.90,0000.70
2022-12-07 06:22:00,,0824.2,5.00,0.00,21.5,20.2,00.0,30.4,23.2,09.8,0000.0,0001.84,0000.91,0000.70
2022-12-07 06:23:00,,0824.2,5.00,0.00,21.5,20.2,00.0,30.4,23.2,09.8,0000.0,0001.83,0000.91,0000.71
2022-12-07 06:24:00,,0824.2,5.01,0.00,21.5,20.1,00.0,30.4,23.2,09.9,0000.0,0001.85,0000.93,0000.72
2022-12-07 06:25:00,,0824.2,5.01,0.00,21.5,20.0,00.0,30.4,23.2,09.7,0000.0,0001.82,0000.94,0000.74
2022-12-07 06:26:00,,0824.3,5.00,0.00,21.5,20.0,00.0,30.4,23.2,09.7,0000.0,0001.75,0000.92,0000.75
2022-12-07 06:27:00,,0824.3,5.00,0.00,21.5,20.0,00.0,30.4,23.2,09.8,0000.0,0001.82,0000.95,0000.76
2022-12-07 06:28:00,,0824.2,4.99,0.00,21.4,19.9,00.0,30.4,23.2,09.8,0000.0,0001.54,0000.95,0000.76
2022-12-07 06:29:00,,0824.2,4.99,0.00,21.4,20.0,00.0,30.4,23.2,09.8,0000.0,0001.54,0000.96,0000.77
2022-12-07 06:30:00,,0824.1,5.01,0.00,21.4,20.0,00.0,30.4,23.2,09.8,0000.0,0001.61,0000.96,0000.76
2022-12-07 06:31:00,,0824.1,5.02,0.00,21.4,20.0,00.0,30.4,23.3,09.7,0000.0,0001.55,0000.94,0000.76
2022-12-07 06:32:00,,0824.1,5.00,0.00,21.5,20.1,00.0,30.4,23.3,09.7,0000.0,0001.49,0000.95,0000.76
2022-12-07 06:33:00,,0824.2,5.00,0.00,21.4,20.0,00.0,30.4,23.2,09.7,0000.0,0001.53,0000.97,0000.77
2022-12-07 06:34:00,,0824.1,5.00,0.00,21.4,20.0,00.0,30.4,23.2,09.8,0000.0,0001.94,0001.00,0000.78
2022-12-07 06:35:00,,0824.2,5.00,0.00,21.4,20.0,00.0,30.4,23.2,09.9,0000.0,0002.06,0001.02,0000.79
2022-12-07 06:36:00,,0824.2,4.99,0.00,21.4,19.9,00.0,30.4,23.2,09.9,0000.0,0002.16,0001.05,0000.80
2022-12-07 06:37:00,,0824.2,4.99,0.00,21.4,19.9,00.0,30.4,23.2,09.9,0000.0,0002.18,0001.06,0000.80
2022-12-07 06:38:00,,0824.3,5.01,0.00,21.4,19.8,00.0,30.4,23.1,10.0,0000.0,0002.09,0001.03,0000.80
2022-12-07 06:39:00,,0824.3,5.01,0.00,21.4,19.7,00.0,30.4,23.1,10.0,0000.0,0002.09,0001.04,0000.81
2022-12-07 06:40:00,,0824.2,5.00,0.00,21.3,19.7,00.0,30.4,23.0,10.2,0000.0,0002.10,0001.05,0000.82
2022-12-07 06:41:00,,0824.3,5.00,0.00,21.3,19.7,00.0,30.4,23.1,10.4,0000.0,0002.08,0001.08,0000.84
2022-12-07 06:42:00,,0824.3,5.00,0.00,21.4,20.3,00.0,30.3,23.2,10.2,0000.0,0002.14,0001.11,0000.85
2022-12-07 06:43:00,,0824.3,5.00,0.00,21.5,21.4,00.0,30.2,23.4,10.2,0000.0,0002.17,0001.13,0000.87
2022-12-07 06:44:00,,0824.3,4.99,0.00,21.6,21.9,00.0,30.3,23.6,10.4,0000.0,0002.44,0001.18,0000.90
2022-12-07 06:45:00,,0824.2,4.99,0.00,21.6,21.5,00.0,30.4,23.6,10.3,0000.0,0002.21,0001.15,0000.91
2022-12-07 06:46:00,,0824.3,5.00,0.00,21.6,21.1,00.0,30.4,23.5,10.2,0000.0,0001.93,0001.11,0000.91
2022-12-07 06:47:00,,0824.3,5.00,0.00,21.6,20.7,00.0,30.4,23.4,10.2,0000.0,0001.88,0001.09,0000.92
2022-12-07 06:48:00,,0824.3,5.00,0.00,21.6,20.5,00.0,30.5,23.4,10.2,0000.0,0001.90,0001.11,0000.93
2022-12-07 06:49:00,,0824.2,5.00,0.00,21.6,20.3,00.0,30.5,23.3,10.2,0000.0,0001.98,0001.15,0000.94
2022-12-07 06:50:00,,0824.3,5.01,0.00,21.5,20.1,00.0,30.5,23.3,10.3,0000.0,0002.05,0001.19,0000.96
2022-12-07 06:51:00,,0824.3,5.01,0.00,21.5,20.1,00.0,30.5,23.3,10.3,0000.0,0002.08,0001.20,0000.96
2022-12-07 06:52:00,,0824.3,5.00,0.00,21.5,20.1,00.0,30.5,23.3,10.3,0000.0,0001.96,0001.15,0000.95
2022-12-07 06:53:00,,0824.3,5.00,0.00,21.5,20.1,00.0,30.5,23.2,10.4,0000.0,0002.08,0001.19,0000.96
2022-12-07 06:54:00,,0824.2,5.00,0.00,21.5,20.0,00.0,30.5,23.2,10.4,0000.0,0002.11,0001.21,0000.97
2022-12-07 06:55:00,,0824.3,4.99,0.00,21.5,19.9,00.0,30.5,23.2,10.4,0000.0,0001.90,0001.18,0000.97
2022-12-07 06:56:00,,0824.3,5.00,0.00,21.4,19.9,00.0,30.5,23.2,10.4,0000.0,0001.77,0001.19,0000.96
2022-12-07 06:57:00,,0824.4,5.02,0.00,21.4,19.9,00.0,30.5,23.2,10.4,0000.0,0001.88,0001.24,0000.96
2022-12-07 06:58:00,,0824.3,5.01,0.00,21.4,19.9,00.0,30.4,23.1,10.4,0000.0,0001.89,0001.25,0000.96
2022-12-07 06:59:00,,0824.3,4.99,0.00,21.4,19.9,00.0,30.4,23.2,10.4,0000.0,0001.90,0001.25,0000.96
